Tracking 29068 objects as of 19-Jul-2024
HD Live streaming from Space Station
objects crossing your sky now

METEOR PRIRODA

Track METEOR PRIRODA now!
10-day predictions
METEOR PRIRODA is classified as:


NORAD ID: 12585
Int'l Code: 1981-065A
Perigee: 445.3 km
Apogee: 456.2 km
Inclination: 97.5 °
Period: 93.5 minutes
Semi major axis: 6821 km
RCS: 4.6163 m2 (large)
Launch date: July 10, 1981
Source: Commonwealth of Independent States (former USSR) (CIS)
Launch site: TYURATAM MISSILE AND SPACE COMPLEX (TTMTR)
Your satellite tracking list
Your tracking list is empty




NASA's NSSDC Master Catalog

Two Line Element Set (TLE):
1 12585U 81065A   24201.06892979  .00025979  00000-0  63326-3 0  9995
2 12585  97.5429 231.2361 0007967 326.5036  33.5705 15.40851798356646
Source of the keplerian elements: AFSPC